owner,sensor,date,latitude,longitude,vertical_datum,direction_of_sea_water_velocity,sea_water_speed,upward_sea_water_velocity,qcFlag 
TABS,ioos:station:TABS:H:1,2005-10-01T00:00:00Z,27.8674,-96.5433,2.0,214.126996,16.7191507,-99999.0,'11111222,11111222,99999999' 
TABS,ioos:station:TABS:H:1,2005-10-01T00:30:00Z,27.8674,-96.5433,2.0,230.3090302,21.70229481,-99999.0,'11111222,11111222,99999999' 
TABS,ioos:station:TABS:H:1,2005-10-01T01:00:00Z,27.8674,-96.5433,2.0,232.7791868,22.88042832,-99999.0,'11111222,11111222,99999999' 
TABS,ioos:station:TABS:H:1,2005-10-01T01:30:00Z,27.8674,-96.5433,2.0,237.3407745,24.34973511,-99999.0,'11111222,11111222,99999999' 
TABS,ioos:station:TABS:H:1,2005-10-01T02:00:00Z,27.8674,-96.5433,2.0,242.6124668,24.93472478,-99999.0,'11111222,11111222,99999999' 
TABS,ioos:station:TABS:H:1,2005-10-01T02:30:00Z,27.8674,-96.5433,2.0,244.3723814,24.04542368,-99999.0,'11111222,11111222,99999999' 
TABS,ioos:station:TABS:H:1,2005-10-01T03:00:00Z,27.8674,-96.5433,2.0,248.2365874,30.50418004,-99999.0,'11111222,11111222,99999999' 
TABS,ioos:station:TABS:H:1,2005-10-01T03:30:00Z,27.8674,-96.5433,2.0,245.7852508,29.33058813,-99999.0,'11111222,11111222,99999999' 
TABS,ioos:station:TABS:H:1,2005-10-01T04:00:00Z,27.8674,-96.5433,2.0,249.6398615,33.14039529,-99999.0,'11111222,11111222,99999999' 
TABS,ioos:station:TABS:H:1,2005-10-01T04:30:00Z,27.8674,-96.5433,2.0,254.9158182,31.97153891,-99999.0,'11111222,11111222,99999999' 
TABS,ioos:station:TABS:H:1,2005-10-01T05:00:00Z,27.8674,-96.5433,2.0,257.7280597,28.74682939,-99999.0,'11111222,11111222,99999999' 
TABS,ioos:station:TABS:H:1,2005-10-01T05:30:00Z,27.8674,-96.5433,2.0,254.2130248,28.74418202,-99999.0,'11111222,11111222,99999999' 
TABS,ioos:station:TABS:H:1,2005-10-01T06:00:00Z,27.8674,-96.5433,2.0,256.3238432,26.98504771,-99999.0,'11111222,11111222,99999999' 
TABS,ioos:station:TABS:H:1,2005-10-01T06:30:00Z,27.8674,-96.5433,2.0,264.0535083,30.50411775,-99999.0,'11111222,11111222,99999999' 
TABS,ioos:station:TABS:H:1,2005-10-01T07:00:00Z,27.8674,-96.5433,2.0,263.3637369,31.67218338,-99999.0,'11111222,11111222,99999999' 
TABS,ioos:station:TABS:H:1,2005-10-01T07:30:00Z,27.8674,-96.5433,2.0,264.7701405,29.62330164,-99999.0,'11111222,11111222,99999999' 
TABS,ioos:station:TABS:H:1,2005-10-01T08:00:00Z,27.8674,-96.5433,2.0,265.1091885,28.15248657,-99999.0,'11111222,11111222,99999999' 
TABS,ioos:station:TABS:H:1,2005-10-01T08:30:00Z,27.8674,-96.5433,2.0,262.6480285,22.58566138,-99999.0,'11111222,11111222,99999999' 
TABS,ioos:station:TABS:H:1,2005-10-01T09:00:00Z,27.8674,-96.5433,2.0,265.8289268,26.39991098,-99999.0,'11111222,11111222,99999999' 
TABS,ioos:station:TABS:H:1,2005-10-01T09:30:00Z,27.8674,-96.5433,2.0,272.5131124,22.58171163,-99999.0,'11111222,11111222,99999999' 
TABS,ioos:station:TABS:H:1,2005-10-01T10:00:00Z,27.8674,-96.5433,2.0,268.9929375,19.35298685,-99999.0,'11111222,11111222,99999999' 
TABS,ioos:station:TABS:H:1,2005-10-01T10:30:00Z,27.8674,-96.5433,2.0,268.2771142,22.29007178,-99999.0,'11111222,11111222,99999999' 
TABS,ioos:station:TABS:H:1,2005-10-01T11:00:00Z,27.8674,-96.5433,2.0,266.524793,21.11882572,-99999.0,'11111222,11111222,99999999' 
TABS,ioos:station:TABS:H:1,2005-10-01T11:30:00Z,27.8674,-96.5433,2.0,274.2656615,16.13468624,-99999.0,'11111222,11111222,99999999' 
TABS,ioos:station:TABS:H:1,2005-10-01T12:00:00Z,27.8674,-96.5433,2.0,262.304315,19.93957121,-99999.0,'11111222,11111222,99999999' 
TABS,ioos:station:TABS:H:1,2005-10-01T12:30:00Z,27.8674,-96.5433,2.0,264.4129608,20.2361187,-99999.0,'11111222,11111222,99999999' 
TABS,ioos:station:TABS:H:1,2005-10-01T13:00:00Z,27.8674,-96.5433,2.0,254.5504935,15.54155719,-99999.0,'11111222,11111222,99999999' 
TABS,ioos:station:TABS:H:1,2005-10-01T13:30:00Z,27.8674,-96.5433,2.0,268.2953493,13.78609807,-99999.0,'11111222,11111222,99999999' 
TABS,ioos:station:TABS:H:1,2005-10-01T14:00:00Z,27.8674,-96.5433,2.0,251.0498355,12.31756875,-99999.0,'11111222,11111222,99999999' 
TABS,ioos:station:TABS:H:1,2005-10-01T14:30:00Z,27.8674,-96.5433,2.0,270.7328538,14.08115052,-99999.0,'11111222,11111222,99999999' 
TABS,ioos:station:TABS:H:1,2005-10-01T15:00:00Z,27.8674,-96.5433,2.0,264.7841117,12.32101051,-99999.0,'11111222,11111222,99999999' 
TABS,ioos:station:TABS:H:1,2005-10-01T15:30:00Z,27.8674,-96.5433,2.0,275.2983995,12.021356,-99999.0,'11111222,11111222,99999999' 
TABS,ioos:station:TABS:H:1,2005-10-01T16:00:00Z,27.8674,-96.5433,2.0,263.3430138,13.19897723,-99999.0,'11111222,11111222,99999999' 
TABS,ioos:station:TABS:H:1,2005-10-01T16:30:00Z,27.8674,-96.5433,2.0,263.3803465,9.976502393,-99999.0,'11133222,11111222,99999999' 
TABS,ioos:station:TABS:H:1,2005-10-01T17:00:00Z,27.8674,-96.5433,2.0,277.4318115,9.973775614,-99999.0,'11133222,11111222,99999999' 
TABS,ioos:station:TABS:H:1,2005-10-01T17:30:00Z,27.8674,-96.5433,2.0,239.8174045,10.56186537,-99999.0,'11111222,11111222,99999999' 
TABS,ioos:station:TABS:H:1,2005-10-01T18:00:00Z,27.8674,-96.5433,2.0,217.6513413,9.674900516,-99999.0,'11133222,11111222,99999999' 
TABS,ioos:station:TABS:H:1,2005-10-01T18:30:00Z,27.8674,-96.5433,2.0,237.0081093,11.14752887,-99999.0,'11111222,11111222,99999999' 
TABS,ioos:station:TABS:H:1,2005-10-01T19:00:00Z,27.8674,-96.5433,2.0,251.7411481,12.3202922,-99999.0,'11111222,11111222,99999999' 
TABS,ioos:station:TABS:H:1,2005-10-01T19:30:00Z,27.8674,-96.5433,2.0,238.7344299,11.73409562,-99999.0,'11111222,11111222,99999999' 
TABS,ioos:station:TABS:H:1,2005-10-01T20:00:00Z,27.8674,-96.5433,2.0,235.236684,14.96011364,-99999.0,'11111222,11111222,99999999' 
TABS,ioos:station:TABS:H:1,2005-10-01T20:30:00Z,27.8674,-96.5433,2.0,234.88765,14.0826276,-99999.0,'11111222,11111222,99999999' 
TABS,ioos:station:TABS:H:1,2005-10-01T21:00:00Z,27.8674,-96.5433,2.0,243.3147248,14.96379965,-99999.0,'11111222,11111222,99999999' 
TABS,ioos:station:TABS:H:1,2005-10-01T21:30:00Z,27.8674,-96.5433,2.0,255.971983,16.1310446,-99999.0,'11111222,11111222,99999999' 
TABS,ioos:station:TABS:H:1,2005-10-01T22:00:00Z,27.8674,-96.5433,2.0,247.5413305,15.54929259,-99999.0,'11111222,11111222,99999999' 
TABS,ioos:station:TABS:H:1,2005-10-01T22:30:00Z,27.8674,-96.5433,2.0,256.3339021,16.12653094,-99999.0,'11111222,11111222,99999999' 
TABS,ioos:station:TABS:H:1,2005-10-01T23:00:00Z,27.8674,-96.5433,2.0,252.8225035,16.42250285,-99999.0,'11111222,11111222,99999999' 
TABS,ioos:station:TABS:H:1,2005-10-01T23:30:00Z,27.8674,-96.5433,2.0,258.0994056,17.89458577,-99999.0,'11111222,11111222,99999999' 
TABS,ioos:station:TABS:H:1,2005-10-02T00:00:00Z,27.8674,-96.5433,2.0,263.7298223,14.37598692,-99999.0,'11111222,11111222,99999999' 
TABS,ioos:station:TABS:H:1,2005-10-02T00:30:00Z,27.8674,-96.5433,2.0,265.4583278,18.18709707,-99999.0,'11111222,11111222,99999999' 
TABS,ioos:station:TABS:H:1,2005-10-02T01:00:00Z,27.8674,-96.5433,2.0,250.6976807,18.18201584,-99999.0,'11111222,11111222,99999999' 
TABS,ioos:station:TABS:H:1,2005-10-02T01:30:00Z,27.8674,-96.5433,2.0,244.7267539,20.82308815,-99999.0,'11111222,11111222,99999999' 
TABS,ioos:station:TABS:H:1,2005-10-02T02:00:00Z,27.8674,-96.5433,2.0,253.5240234,24.04736992,-99999.0,'11111222,11111222,99999999' 
TABS,ioos:station:TABS:H:1,2005-10-02T02:30:00Z,27.8674,-96.5433,2.0,252.8004693,21.40727446,-99999.0,'11111222,11111222,99999999' 
TABS,ioos:station:TABS:H:1,2005-10-02T03:00:00Z,27.8674,-96.5433,2.0,264.4176313,19.9445757,-99999.0,'11111222,11111222,99999999' 
TABS,ioos:station:TABS:H:1,2005-10-02T03:30:00Z,27.8674,-96.5433,2.0,258.089767,22.28982055,-99999.0,'11111222,11111222,99999999' 
TABS,ioos:station:TABS:H:1,2005-10-02T04:00:00Z,27.8674,-96.5433,2.0,260.9025724,23.46514436,-99999.0,'11111222,11111222,99999999' 
TABS,ioos:station:TABS:H:1,2005-10-02T04:30:00Z,27.8674,-96.5433,2.0,267.2206292,26.40104733,-99999.0,'11111222,11111222,99999999' 
TABS,ioos:station:TABS:H:1,2005-10-02T05:00:00Z,27.8674,-96.5433,2.0,258.4454557,23.46550873,-99999.0,'11111222,11111222,99999999' 
TABS,ioos:station:TABS:H:1,2005-10-02T05:30:00Z,27.8674,-96.5433,2.0,267.225096,23.75784923,-99999.0,'11111222,11111222,99999999' 
TABS,ioos:station:TABS:H:1,2005-10-02T06:00:00Z,27.8674,-96.5433,2.0,270.0453235,25.52000784,-99999.0,'11111222,11111222,99999999' 
TABS,ioos:station:TABS:H:1,2005-10-02T06:30:00Z,27.8674,-96.5433,2.0,270.7363917,20.24166989,-99999.0,'11111222,11111222,99999999' 
TABS,ioos:station:TABS:H:1,2005-10-02T07:00:00Z,27.8674,-96.5433,2.0,268.6433144,24.92698337,-99999.0,'11111222,11111222,99999999' 
TABS,ioos:station:TABS:H:1,2005-10-02T07:30:00Z,27.8674,-96.5433,2.0,274.6250159,18.48016504,-99999.0,'11111222,11111222,99999999' 
TABS,ioos:station:TABS:H:1,2005-10-02T08:00:00Z,27.8674,-96.5433,2.0,262.3141746,18.76859345,-99999.0,'11111222,11111222,99999999' 
TABS,ioos:station:TABS:H:1,2005-10-02T08:30:00Z,27.8674,-96.5433,2.0,261.5887899,18.18559045,-99999.0,'11111222,11111222,99999999' 
TABS,ioos:station:TABS:H:1,2005-10-02T09:00:00Z,27.8674,-96.5433,2.0,255.9633684,20.53306602,-99999.0,'11111222,11111222,99999999' 
TABS,ioos:station:TABS:H:1,2005-10-02T09:30:00Z,27.8674,-96.5433,2.0,259.8580407,17.88951089,-99999.0,'11111222,11111222,99999999' 
TABS,ioos:station:TABS:H:1,2005-10-02T10:00:00Z,27.8674,-96.5433,2.0,255.971983,16.1310446,-99999.0,'11111222,11111222,99999999' 
TABS,ioos:station:TABS:H:1,2005-10-02T10:30:00Z,27.8674,-96.5433,2.0,245.4155419,17.59495382,-99999.0,'11111222,11111222,99999999' 
TABS,ioos:station:TABS:H:1,2005-10-02T11:00:00Z,27.8674,-96.5433,2.0,246.1100104,14.37122124,-99999.0,'11111222,11111222,99999999' 
TABS,ioos:station:TABS:H:1,2005-10-02T11:30:00Z,27.8674,-96.5433,2.0,251.3971427,17.30405733,-99999.0,'11111222,11111222,99999999' 
TABS,ioos:station:TABS:H:1,2005-10-02T12:00:00Z,27.8674,-96.5433,2.0,245.0787769,17.30087281,-99999.0,'11111222,11111222,99999999' 
TABS,ioos:station:TABS:H:1,2005-10-02T12:30:00Z,27.8674,-96.5433,2.0,246.8303501,20.53632879,-99999.0,'11111222,11111222,99999999' 
TABS,ioos:station:TABS:H:1,2005-10-02T13:00:00Z,27.8674,-96.5433,2.0,247.8751602,18.77224014,-99999.0,'11111222,11111222,99999999' 
TABS,ioos:station:TABS:H:1,2005-10-02T13:30:00Z,27.8674,-96.5433,2.0,246.8465517,18.18463362,-99999.0,'11111222,11111222,99999999' 
TABS,ioos:station:TABS:H:1,2005-10-02T14:00:00Z,27.8674,-96.5433,2.0,239.812413,18.47552435,-99999.0,'11111222,11111222,99999999' 
TABS,ioos:station:TABS:H:1,2005-10-02T14:30:00Z,27.8674,-96.5433,2.0,252.8094509,20.23386518,-99999.0,'11111222,11111222,99999999' 
TABS,ioos:station:TABS:H:1,2005-10-02T15:00:00Z,27.8674,-96.5433,2.0,239.796412,21.70677314,-99999.0,'11111222,11111222,99999999' 
TABS,ioos:station:TABS:H:1,2005-10-02T15:30:00Z,27.8674,-96.5433,2.0,249.6493515,23.46456051,-99999.0,'11111222,11111222,99999999' 
TABS,ioos:station:TABS:H:1,2005-10-02T16:00:00Z,27.8674,-96.5433,2.0,240.8444602,24.34434637,-99999.0,'11111222,11111222,99999999' 
TABS,ioos:station:TABS:H:1,2005-10-02T16:30:00Z,27.8674,-96.5433,2.0,244.7242524,24.6387662,-99999.0,'11111222,11111222,99999999' 
TABS,ioos:station:TABS:H:1,2005-10-02T17:00:00Z,27.8674,-96.5433,2.0,240.159195,20.82049951,-99999.0,'11111222,11111222,99999999' 
TABS,ioos:station:TABS:H:1,2005-10-02T17:30:00Z,27.8674,-96.5433,2.0,242.6050778,23.16809228,-99999.0,'11111222,11111222,99999999' 
TABS,ioos:station:TABS:H:1,2005-10-02T18:00:00Z,27.8674,-96.5433,2.0,237.3351148,27.27343029,-99999.0,'11111222,11111222,99999999' 
TABS,ioos:station:TABS:H:1,2005-10-02T18:30:00Z,27.8674,-96.5433,2.0,235.2402536,21.99491987,-99999.0,'11111222,11111222,99999999' 
TABS,ioos:station:TABS:H:1,2005-10-02T19:00:00Z,27.8674,-96.5433,2.0,238.0466753,24.3375615,-99999.0,'11111222,11111222,99999999' 
TABS,ioos:station:TABS:H:1,2005-10-02T19:30:00Z,27.8674,-96.5433,2.0,235.2320759,25.51517392,-99999.0,'11111222,11111222,99999999' 
TABS,ioos:station:TABS:H:1,2005-10-02T20:00:00Z,27.8674,-96.5433,2.0,233.817741,26.98394523,-99999.0,'11111222,11111222,99999999' 
TABS,ioos:station:TABS:H:1,2005-10-02T20:30:00Z,27.8674,-96.5433,2.0,235.2313805,28.74133261,-99999.0,'11111222,11111222,99999999' 
TABS,ioos:station:TABS:H:1,2005-10-02T21:00:00Z,27.8674,-96.5433,2.0,232.0619101,29.61914415,-99999.0,'11111222,11111222,99999999' 
TABS,ioos:station:TABS:H:1,2005-10-02T21:30:00Z,27.8674,-96.5433,2.0,229.5997692,29.62420632,-99999.0,'11111222,11111222,99999999' 
TABS,ioos:station:TABS:H:1,2005-10-02T22:00:00Z,27.8674,-96.5433,2.0,226.4415356,26.97759441,-99999.0,'11111222,11111222,99999999' 
TABS,ioos:station:TABS:H:1,2005-10-02T22:30:00Z,27.8674,-96.5433,2.0,225.3903938,29.0344795,-99999.0,'11111222,11111222,99999999' 
TABS,ioos:station:TABS:H:1,2005-10-02T23:00:00Z,27.8674,-96.5433,2.0,223.6307701,32.85448676,-99999.0,'11111222,11111222,99999999' 
TABS,ioos:station:TABS:H:1,2005-10-02T23:30:00Z,27.8674,-96.5433,2.0,220.4722072,29.91912432,-99999.0,'11111222,11111222,99999999' 
TABS,ioos:station:TABS:H:1,2005-10-03T00:00:00Z,27.8674,-96.5433,2.0,221.1786838,31.08988421,-99999.0,'11111222,11111222,99999999' 
TABS,ioos:station:TABS:H:1,2005-10-03T00:30:00Z,27.8674,-96.5433,2.0,239.8019881,35.78637869,-99999.0,'11111222,11111222,99999999' 
TABS,ioos:station:TABS:H:1,2005-10-03T01:00:00Z,27.8674,-96.5433,2.0,257.0293946,38.71781244,-99999.0,'11111222,11111222,99999999' 
TABS,ioos:station:TABS:H:1,2005-10-03T01:30:00Z,27.8674,-96.5433,2.0,255.9789548,44.57804953,-99999.0,'11111222,11111222,99999999' 
TABS,ioos:station:TABS:H:1,2005-10-03T02:00:00Z,27.8674,-96.5433,2.0,252.4621274,43.40758574,-99999.0,'11111222,11111222,99999999' 
TABS,ioos:station:TABS:H:1,2005-10-03T02:30:00Z,27.8674,-96.5433,2.0,252.8124041,44.87387324,-99999.0,'11111222,11111222,99999999' 
TABS,ioos:station:TABS:H:1,2005-10-03T03:00:00Z,27.8674,-96.5433,2.0,248.5953346,43.4036139,-99999.0,'11111222,11111222,99999999' 
TABS,ioos:station:TABS:H:1,2005-10-03T03:30:00Z,27.8674,-96.5433,2.0,251.4068345,40.17689012,-99999.0,'11111222,11111222,99999999' 
TABS,ioos:station:TABS:H:1,2005-10-03T04:00:00Z,27.8674,-96.5433,2.0,247.1913847,40.47483416,-99999.0,'11111222,11111222,99999999' 
TABS,ioos:station:TABS:H:1,2005-10-03T04:30:00Z,27.8674,-96.5433,2.0,246.8261158,39.00720574,-99999.0,'11111222,11111222,99999999' 
TABS,ioos:station:TABS:H:1,2005-10-03T05:00:00Z,27.8674,-96.5433,2.0,245.419412,41.06095469,-99999.0,'11111222,11111222,99999999' 
TABS,ioos:station:TABS:H:1,2005-10-03T05:30:00Z,27.8674,-96.5433,2.0,243.6716274,37.83459396,-99999.0,'11111222,11111222,99999999' 
TABS,ioos:station:TABS:H:1,2005-10-03T06:00:00Z,27.8674,-96.5433,2.0,246.8370791,35.49082276,-99999.0,'11111222,11111222,99999999' 
TABS,ioos:station:TABS:H:1,2005-10-03T06:30:00Z,27.8674,-96.5433,2.0,243.6734253,40.76834556,-99999.0,'11111222,11111222,99999999' 
TABS,ioos:station:TABS:H:1,2005-10-03T07:00:00Z,27.8674,-96.5433,2.0,239.1068721,34.61015602,-99999.0,'11111222,11111222,99999999' 
TABS,ioos:station:TABS:H:1,2005-10-03T07:30:00Z,27.8674,-96.5433,2.0,238.7417385,36.07691783,-99999.0,'11111222,11111222,99999999' 
TABS,ioos:station:TABS:H:1,2005-10-03T08:00:00Z,27.8674,-96.5433,2.0,239.7968391,34.60803664,-99999.0,'11111222,11111222,99999999' 
TABS,ioos:station:TABS:H:1,2005-10-03T08:30:00Z,27.8674,-96.5433,2.0,234.1785563,34.30974789,-99999.0,'11111222,11111222,99999999' 
TABS,ioos:station:TABS:H:1,2005-10-03T09:00:00Z,27.8674,-96.5433,2.0,228.2038896,32.25914599,-99999.0,'11111222,11111222,99999999' 
TABS,ioos:station:TABS:H:1,2005-10-03T09:30:00Z,27.8674,-96.5433,2.0,230.6633773,37.83104545,-99999.0,'11111222,11111222,99999999' 
TABS,ioos:station:TABS:H:1,2005-10-03T10:00:00Z,27.8674,-96.5433,2.0,224.3314139,36.37604706,-99999.0,'11111222,11111222,99999999' 
TABS,ioos:station:TABS:H:1,2005-10-03T10:30:00Z,27.8674,-96.5433,2.0,225.7319013,29.32611294,-99999.0,'11111222,11111222,99999999' 
TABS,ioos:station:TABS:H:1,2005-10-03T11:00:00Z,27.8674,-96.5433,2.0,222.5787,30.80077921,-99999.0,'11111222,11111222,99999999' 
TABS,ioos:station:TABS:H:1,2005-10-03T11:30:00Z,27.8674,-96.5433,2.0,220.1040832,33.14279711,-99999.0,'11111222,11111222,99999999' 
TABS,ioos:station:TABS:H:1,2005-10-03T12:00:00Z,27.8674,-96.5433,2.0,222.2230277,31.38288865,-99999.0,'11111222,11111222,99999999' 
TABS,ioos:station:TABS:H:1,2005-10-03T12:30:00Z,27.8674,-96.5433,2.0,225.0308402,39.01108689,-99999.0,'11111222,11111222,99999999' 
TABS,ioos:station:TABS:H:1,2005-10-03T13:00:00Z,27.8674,-96.5433,2.0,223.2725986,39.88479911,-99999.0,'11111222,11111222,99999999' 
TABS,ioos:station:TABS:H:1,2005-10-03T13:30:00Z,27.8674,-96.5433,2.0,255.2669863,29.33442517,-99999.0,'11111222,11111222,99999999' 
TABS,ioos:station:TABS:H:1,2005-10-03T14:00:00Z,27.8674,-96.5433,2.0,252.8096217,38.13342104,-99999.0,'11111222,11111222,99999999' 
TABS,ioos:station:TABS:H:1,2005-10-03T14:30:00Z,27.8674,-96.5433,2.0,251.0476035,39.59649101,-99999.0,'11111222,11111222,99999999' 
TABS,ioos:station:TABS:H:1,2005-10-03T15:00:00Z,27.8674,-96.5433,2.0,253.5195861,39.30468929,-99999.0,'11111222,11111222,99999999' 
TABS,ioos:station:TABS:H:1,2005-10-03T15:30:00Z,27.8674,-96.5433,2.0,245.7771299,34.90288384,-99999.0,'11111222,11111222,99999999' 
TABS,ioos:station:TABS:H:1,2005-10-03T16:00:00Z,27.8674,-96.5433,2.0,246.1259937,36.66724015,-99999.0,'11111222,11111222,99999999' 
TABS,ioos:station:TABS:H:1,2005-10-03T16:30:00Z,27.8674,-96.5433,2.0,249.9984045,37.83181333,-99999.0,'11111222,11111222,99999999' 
TABS,ioos:station:TABS:H:1,2005-10-03T17:00:00Z,27.8674,-96.5433,2.0,257.3818038,43.99246526,-99999.0,'11111222,11111222,99999999' 
TABS,ioos:station:TABS:H:1,2005-10-03T17:30:00Z,27.8674,-96.5433,2.0,254.5632093,45.45989881,-99999.0,'11111222,11111222,99999999' 
TABS,ioos:station:TABS:H:1,2005-10-03T18:00:00Z,27.8674,-96.5433,2.0,251.0568966,42.81892105,-99999.0,'11111222,11111222,99999999' 
TABS,ioos:station:TABS:H:1,2005-10-03T18:30:00Z,27.8674,-96.5433,2.0,250.7076303,41.64869386,-99999.0,'11111222,11111222,99999999' 
TABS,ioos:station:TABS:H:1,2005-10-03T19:00:00Z,27.8674,-96.5433,2.0,251.4079267,39.30093383,-99999.0,'11111222,11111222,99999999' 
TABS,ioos:station:TABS:H:1,2005-10-03T19:30:00Z,27.8674,-96.5433,2.0,261.6037714,38.42176727,-99999.0,'11111222,11111222,99999999' 
TABS,ioos:station:TABS:H:1,2005-10-03T20:00:00Z,27.8674,-96.5433,2.0,259.1464255,38.1320718,-99999.0,'11111222,11111222,99999999' 
TABS,ioos:station:TABS:H:1,2005-10-03T20:30:00Z,27.8674,-96.5433,2.0,263.7058653,38.12980986,-99999.0,'11111222,11111222,99999999' 
TABS,ioos:station:TABS:H:1,2005-10-03T21:00:00Z,27.8674,-96.5433,2.0,260.5449262,36.95196071,-99999.0,'11111222,11111222,99999999' 
TABS,ioos:station:TABS:H:1,2005-10-03T21:30:00Z,27.8674,-96.5433,2.0,257.7335063,36.66705606,-99999.0,'11111222,11111222,99999999' 
TABS,ioos:station:TABS:H:1,2005-10-03T22:00:00Z,27.8674,-96.5433,2.0,253.513041,34.32106787,-99999.0,'11111222,11111222,99999999' 
TABS,ioos:station:TABS:H:1,2005-10-03T22:30:00Z,27.8674,-96.5433,2.0,255.9751158,35.4878134,-99999.0,'11111222,11111222,99999999' 
TABS,ioos:station:TABS:H:1,2005-10-03T23:00:00Z,27.8674,-96.5433,2.0,251.0612901,31.6745955,-99999.0,'11111222,11111222,99999999' 
TABS,ioos:station:TABS:H:1,2005-10-03T23:30:00Z,27.8674,-96.5433,2.0,243.6686077,32.84811258,-99999.0,'11111222,11111222,99999999' 
TABS,ioos:station:TABS:H:1,2005-10-04T00:00:00Z,27.8674,-96.5433,2.0,247.8937178,32.8443983,-99999.0,'11111222,11111222,99999999' 
TABS,ioos:station:TABS:H:1,2005-10-04T00:30:00Z,27.8674,-96.5433,2.0,245.787763,29.62605104,-99999.0,'11111222,11111222,99999999' 
TABS,ioos:station:TABS:H:1,2005-10-04T01:00:00Z,27.8674,-96.5433,2.0,243.6721392,33.43844793,-99999.0,'11111222,11111222,99999999' 
TABS,ioos:station:TABS:H:1,2005-10-04T01:30:00Z,27.8674,-96.5433,2.0,244.017058,38.71280925,-99999.0,'11111222,11111222,99999999' 
TABS,ioos:station:TABS:H:1,2005-10-04T02:00:00Z,27.8674,-96.5433,2.0,243.6734627,37.54390763,-99999.0,'11111222,11111222,99999999' 
TABS,ioos:station:TABS:H:1,2005-10-04T02:30:00Z,27.8674,-96.5433,2.0,238.3911812,38.71311147,-99999.0,'11111222,11111222,99999999' 
TABS,ioos:station:TABS:H:1,2005-10-04T03:00:00Z,27.8674,-96.5433,2.0,233.4716642,39.8847101,-99999.0,'11111222,11111222,99999999' 
TABS,ioos:station:TABS:H:1,2005-10-04T03:30:00Z,27.8674,-96.5433,2.0,228.205046,42.23792845,-99999.0,'11111222,11111222,99999999' 
TABS,ioos:station:TABS:H:1,2005-10-04T04:00:00Z,27.8674,-96.5433,2.0,244.3699232,45.75157484,-99999.0,'11111222,11111222,99999999' 
TABS,ioos:station:TABS:H:1,2005-10-04T04:30:00Z,27.8674,-96.5433,2.0,244.0216719,55.43056287,-99999.0,'11111222,11111222,99999999' 
TABS,ioos:station:TABS:H:1,2005-10-04T05:00:00Z,27.8674,-96.5433,2.0,240.5055963,50.1489641,-99999.0,'11111222,11111222,99999999' 
TABS,ioos:station:TABS:H:1,2005-10-04T05:30:00Z,27.8674,-96.5433,2.0,231.7185246,49.86112413,-99999.0,'11111222,11111222,99999999' 
TABS,ioos:station:TABS:H:1,2005-10-04T06:00:00Z,27.8674,-96.5433,2.0,242.966608,57.49122542,-99999.0,'11111222,11111222,99999999' 
TABS,ioos:station:TABS:H:1,2005-10-04T06:30:00Z,27.8674,-96.5433,2.0,239.8075368,55.1400807,-99999.0,'11111222,11111222,99999999' 
TABS,ioos:station:TABS:H:1,2005-10-04T07:00:00Z,27.8674,-96.5433,2.0,239.8075368,55.1400807,-99999.0,'11111222,11111222,99999999' 
TABS,ioos:station:TABS:H:1,2005-10-04T07:30:00Z,27.8674,-96.5433,2.0,239.4519272,53.37862681,-99999.0,'11111222,11111222,99999999' 
TABS,ioos:station:TABS:H:1,2005-10-04T08:00:00Z,27.8674,-96.5433,2.0,234.1801356,58.36980812,-99999.0,'11111222,11111222,99999999' 
TABS,ioos:station:TABS:H:1,2005-10-04T08:30:00Z,27.8674,-96.5433,2.0,240.1504169,59.25025063,-99999.0,'11111222,11111222,99999999' 
TABS,ioos:station:TABS:H:1,2005-10-04T09:00:00Z,27.8674,-96.5433,2.0,235.9365735,58.36401802,-99999.0,'11111222,11111222,99999999' 
TABS,ioos:station:TABS:H:1,2005-10-04T09:30:00Z,27.8674,-96.5433,2.0,235.2340856,58.66155982,-99999.0,'11111222,11111222,99999999' 
TABS,ioos:station:TABS:H:1,2005-10-04T10:00:00Z,27.8674,-96.5433,2.0,238.7448258,64.81701166,-99999.0,'11111222,11111222,99999999' 
TABS,ioos:station:TABS:H:1,2005-10-04T10:30:00Z,27.8674,-96.5433,2.0,236.2819235,68.92428092,-99999.0,'11111222,11111222,99999999' 
TABS,ioos:station:TABS:H:1,2005-10-04T11:00:00Z,27.8674,-96.5433,2.0,234.5274951,76.25268848,-99999.0,'11111222,11111222,99999999' 
TABS,ioos:station:TABS:H:1,2005-10-04T11:30:00Z,27.8674,-96.5433,2.0,229.9604042,75.96619314,-99999.0,'11111222,11111222,99999999' 
TABS,ioos:station:TABS:H:1,2005-10-04T12:00:00Z,27.8674,-96.5433,2.0,237.3426785,43.99487697,-99999.0,'11111222,11111222,99999999' 
TABS,ioos:station:TABS:H:1,2005-10-04T12:30:00Z,27.8674,-96.5433,2.0,235.228569,60.12633533,-99999.0,'11111222,11111222,99999999' 
TABS,ioos:station:TABS:H:1,2005-10-04T13:00:00Z,27.8674,-96.5433,2.0,238.7448258,64.81701166,-99999.0,'11111222,11111222,99999999' 
TABS,ioos:station:TABS:H:1,2005-10-04T13:30:00Z,27.8674,-96.5433,2.0,229.2526408,46.05340053,-99999.0,'11111222,11111222,99999999' 
TABS,ioos:station:TABS:H:1,2005-10-04T14:00:00Z,27.8674,-96.5433,2.0,233.4745142,59.83108306,-99999.0,'11111222,11111222,99999999' 
TABS,ioos:station:TABS:H:1,2005-10-04T14:30:00Z,27.8674,-96.5433,2.0,223.9802106,67.16456283,-99999.0,'11111222,11111222,99999999' 
TABS,ioos:station:TABS:H:1,2005-10-04T15:00:00Z,27.8674,-96.5433,2.0,226.7967275,78.01810687,-99999.0,'11111222,11111222,99999999' 
TABS,ioos:station:TABS:H:1,2005-10-04T15:30:00Z,27.8674,-96.5433,2.0,227.846673,82.71337558,-99999.0,'11111222,11111222,99999999' 
TABS,ioos:station:TABS:H:1,2005-10-04T16:00:00Z,27.8674,-96.5433,2.0,227.8465238,78.01945398,-99999.0,'11111222,11111222,99999999' 
TABS,ioos:station:TABS:H:1,2005-10-04T16:30:00Z,27.8674,-96.5433,2.0,228.5492486,77.43532269,-99999.0,'11111222,11111222,99999999' 
TABS,ioos:station:TABS:H:1,2005-10-04T17:00:00Z,27.8674,-96.5433,2.0,232.4178941,74.2097278,-99999.0,'11111222,11111222,99999999' 
TABS,ioos:station:TABS:H:1,2005-10-04T17:30:00Z,27.8674,-96.5433,2.0,227.8463555,73.32553239,-99999.0,'11111222,11111222,99999999' 
TABS,ioos:station:TABS:H:1,2005-10-04T18:00:00Z,27.8674,-96.5433,2.0,238.7473611,71.85710334,-99999.0,'11111222,11111222,99999999' 